Simultaneous Nadir Overpasses (SNOs) Predictions

Prediction of SNOs between LANDSAT-8 and METOP-B Satellite Orbit:

Table of predicted SNOs for the next 14.0 days since TLE Epoch: 12/18/2021
Index Date (LANDSAT-8) Time (LANDSAT-8) Lat,Lon (LANDSAT-8) SZA (LANDSAT-8 ) Date (METOP-B) Time (METOP-B) Lat,Lon (METOP-B) SZA (METOP-B ) Distance(km) Time Diff (sec)
1 12/20/2021 06:48:27 81.15, 118.19 106.59 12/20/2021 06:48:13 81.15, 118.37 106.61 3.07 14
2 12/20/2021 07:37:53 -81.17, -73.85 73.36 12/20/2021 07:38:52 -81.17, -73.73 73.33 2.08 59
3 12/23/2021 02:22:42 81.14,-175.60 106.53 12/23/2021 02:22:35 81.15,-175.45 106.55 2.83 7
4 12/23/2021 03:12:08 -81.16, -7.62 73.43 12/23/2021 03:13:14 -81.17, -7.53 73.39 1.73 66
5 12/25/2021 21:07:31 -81.12, 82.89 73.62 12/25/2021 21:06:17 -81.13, 83.02 73.63 2.36 74
6 12/25/2021 21:56:56 81.14,-109.08 106.44 12/25/2021 21:56:56 81.15,-108.92 106.46 2.97 0
7 12/25/2021 22:46:22 -81.16, 58.92 73.51 12/25/2021 22:47:35 -81.17, 59.02 73.47 1.81 73
8 12/28/2021 16:41:45 -81.12, 149.38 73.77 12/28/2021 16:40:38 -81.13, 149.54 73.77 2.99 67
9 12/28/2021 17:31:10 81.14, -42.61 106.29 12/28/2021 17:31:18 81.14, -42.79 106.27 3.08 8
10 12/31/2021 12:15:58 -81.12,-144.19 73.99 12/31/2021 12:14:59 -81.12,-144.33 74.02 2.52 59



Historial Predications of SNOs between LANDSAT-8 and METOP-B
